Main page
METAR-TAF:

METAR-TAF

Airports :

Cascais Municipal Aerodrome

Cascais, Portugal

latitude: 38-43-32N, longitude: 009-21-19W, elevation: 99 m

Current weather observation

The report was made 15 minutes ago, at 11:30 UTC
Wind 7 kt from the West/Northwest, varying between West/Southwest and North
Temperature 23°C
Humidity 57%
Pressure 1017 hPa
Visibility 10 km or more
Few clouds at a height of 3000 ft

METAR: LPCS 231130Z 30007KT 250V350 9999 FEW030 23/14 Q1017

Time: 12:45 (11:45 UTC)


TAF: missing

Weather observations and forecasts of more than 4000 airports (METAR and TAF reports).

The available stations are represented by yellow and red dots on the map.

Hover mouse over dot to see the name of the station.

Then click to see weather observations and forecasts.

To change the map : click on the green buttons with a black cross to zoom in, on the green button with a dash to zoom out, or on the green arrows for adjacent maps.


METAR-TAF: